Time,TemperatureF,DewpointF,PressureIn,WindDirection,WindDirectionDegrees,WindSpeedMPH,WindSpeedGustMPH,Humidity,HourlyPrecipIn,Conditions,Clouds,dailyrainin,SoftwareType,DateUTC
2013-09-15 00:00:00,73.8,61.2,29.96,SSE,157,5.8,10.7,65,-99.99,,,0.00,wxRedirect v1.1,2013-09-15 05:00:00,
2013-09-15 00:02:00,73.2,60.7,29.95,South,180,4.9,13.2,65,-99.99,,,0.00,wxRedirect v1.1,2013-09-15 05:02:00,
2013-09-15 00:05:00,73.6,61.1,29.95,SSE,157,3.8,7.2,65,-99.99,,,0.00,wxRedirect v1.1,2013-09-15 05:05:00,
2013-09-15 00:06:00,73.2,60.7,29.95,SSE,157,0.7,9.8,65,-99.99,,,0.00,wxRedirect v1.1,2013-09-15 05:06:00,
2013-09-15 00:10:00,73.2,60.7,29.95,SSE,157,4.5,10.1,65,-99.99,,,0.00,wxRedirect v1.1,2013-09-15 05:10:00,
2013-09-15 00:11:00,73.6,61.1,29.96,South,180,3.1,13.2,65,-99.99,,,0.00,wxRedirect v1.1,2013-09-15 05:11:00,
2013-09-15 00:13:00,73.0,60.5,29.95,South,180,3.8,10.1,65,-99.99,,,0.00,wxRedirect v1.1,2013-09-15 05:13:00,
2013-09-15 00:16:00,73.2,60.7,29.95,South,180,2.2,13.2,65,-99.99,,,0.00,wxRedirect v1.1,2013-09-15 05:16:00,
2013-09-15 00:17:00,72.9,60.8,29.95,SSE,157,3.8,8.1,66,-99.99,,,0.00,wxRedirect v1.1,2013-09-15 05:17:00,
2013-09-15 00:18:00,72.9,60.8,29.95,South,180,4.9,8.1,66,-99.99,,,0.00,wxRedirect v1.1,2013-09-15 05:18:00,
2013-09-15 00:20:00,72.7,60.6,29.95,South,180,2.7,8.1,66,-99.99,,,0.00,wxRedirect v1.1,2013-09-15 05:20:00,
2013-09-15 00:21:00,73.2,60.7,29.95,SSE,157,2.0,10.1,65,-99.99,,,0.00,wxRedirect v1.1,2013-09-15 05:21:00,
2013-09-15 00:22:00,72.7,60.6,29.95,South,180,4.7,8.1,66,-99.99,,,0.00,wxRedirect v1.1,2013-09-15 05:22:00,
2013-09-15 00:23:00,72.7,60.6,29.95,South,180,2.2,8.1,66,-99.99,,,0.00,wxRedirect v1.1,2013-09-15 05:23:00,
2013-09-15 00:25:00,72.7,60.6,29.95,SSE,157,8.3,8.3,66,-99.99,,,0.00,wxRedirect v1.1,2013-09-15 05:25:00,
2013-09-15 00:27:00,73.0,60.5,29.95,SSE,157,3.1,10.1,65,-99.99,,,0.00,wxRedirect v1.1,2013-09-15 05:27:00,
2013-09-15 00:30:00,72.5,60.5,29.95,South,180,0.0,8.3,66,-99.99,,,0.00,wxRedirect v1.1,2013-09-15 05:30:00,
2013-09-15 00:32:00,72.7,60.6,29.95,South,180,4.7,8.1,66,-99.99,,,0.00,wxRedirect v1.1,2013-09-15 05:32:00,
2013-09-15 00:35:00,72.3,60.7,29.95,South,180,2.7,7.4,67,-99.99,,,0.00,wxRedirect v1.1,2013-09-15 05:35:00,
2013-09-15 00:37:00,72.7,60.6,29.95,South,180,4.7,8.1,66,-99.99,,,0.00,wxRedirect v1.1,2013-09-15 05:37:00,
2013-09-15 00:38:00,72.3,60.7,29.95,South,180,5.4,6.3,67,-99.99,,,0.00,wxRedirect v1.1,2013-09-15 05:38:00,
2013-09-15 00:41:00,72.3,60.7,29.96,South,180,2.2,8.7,67,-99.99,,,0.00,wxRedirect v1.1,2013-09-15 05:41:00,
2013-09-15 00:42:00,72.3,60.7,29.96,SSE,157,3.8,8.7,67,-99.99,,,0.00,wxRedirect v1.1,2013-09-15 05:42:00,
2013-09-15 00:43:00,72.5,60.5,29.96,South,180,4.7,8.3,66,-99.99,,,0.00,wxRedirect v1.1,2013-09-15 05:43:00,
2013-09-15 00:49:00,72.5,60.5,29.95,South,180,2.9,7.4,66,-99.99,,,0.00,wxRedirect v1.1,2013-09-15 05:49:00,
2013-09-15 00:54:00,72.3,60.7,29.96,SE,135,4.0,8.7,67,-99.99,,,0.00,wxRedirect v1.1,2013-09-15 05:54:00,
2013-09-15 01:01:00,71.8,60.2,29.96,SSE,157,3.6,9.4,67,-99.99,,,0.00,wxRedirect v1.1,2013-09-15 06:01:00,
2013-09-15 01:05:00,72.1,60.6,29.96,South,180,4.3,7.6,67,-99.99,,,0.00,wxRedirect v1.1,2013-09-15 06:05:00,
2013-09-15 01:06:00,71.8,60.2,29.95,South,180,3.1,10.1,67,-99.99,,,0.00,wxRedirect v1.1,2013-09-15 06:06:00,
2013-09-15 01:08:00,71.8,60.2,29.96,South,180,5.6,10.1,67,-99.99,,,0.00,wxRedirect v1.1,2013-09-15 06:08:00,
2013-09-15 01:10:00,72.0,60.4,29.96,South,180,9.4,9.4,67,-99.99,,,0.00,wxRedirect v1.1,2013-09-15 06:10:00,
2013-09-15 01:15:00,71.8,60.2,29.96,South,180,10.1,10.1,67,-99.99,,,0.00,wxRedirect v1.1,2013-09-15 06:15:00,
2013-09-15 01:21:00,71.8,60.2,29.96,SSE,157,9.4,10.1,67,-99.99,,,0.00,wxRedirect v1.1,2013-09-15 06:21:00,
2013-09-15 01:26:00,71.8,60.6,29.96,SSE,157,3.6,9.4,68,-99.99,,,0.00,wxRedirect v1.1,2013-09-15 06:26:00,
2013-09-15 01:31:00,71.6,60.5,29.96,SSE,157,4.7,10.7,68,-99.99,,,0.00,wxRedirect v1.1,2013-09-15 06:31:00,
2013-09-15 01:37:00,71.4,60.3,29.96,SSE,157,7.4,10.7,68,-99.99,,,0.00,wxRedirect v1.1,2013-09-15 06:37:00,
2013-09-15 01:42:00,71.4,60.3,29.95,South,180,5.8,9.8,68,-99.99,,,0.00,wxRedirect v1.1,2013-09-15 06:42:00,
2013-09-15 01:47:00,71.4,60.3,29.96,South,180,3.4,9.8,68,-99.99,,,0.00,wxRedirect v1.1,2013-09-15 06:47:00,
2013-09-15 01:53:00,71.2,60.1,29.95,South,180,8.5,14.1,68,-99.99,,,0.00,wxRedirect v1.1,2013-09-15 06:53:00,
2013-09-15 01:58:00,71.2,60.1,29.95,South,180,10.1,14.1,68,-99.99,,,0.00,wxRedirect v1.1,2013-09-15 06:58:00,
2013-09-15 02:03:00,71.1,59.9,29.96,South,180,3.4,10.1,68,-99.99,,,0.00,wxRedirect v1.1,2013-09-15 07:03:00,
2013-09-15 02:09:00,70.9,59.8,29.95,South,180,2.5,8.9,68,-99.99,,,0.00,wxRedirect v1.1,2013-09-15 07:09:00,
2013-09-15 02:14:00,70.9,59.8,29.95,South,180,10.7,10.7,68,-99.99,,,0.00,wxRedirect v1.1,2013-09-15 07:14:00,
2013-09-15 02:19:00,70.9,59.8,29.95,SSE,157,4.7,10.7,68,-99.99,,,0.00,wxRedirect v1.1,2013-09-15 07:19:00,
2013-09-15 02:25:00,70.7,59.6,29.95,South,180,10.3,10.3,68,-99.99,,,0.00,wxRedirect v1.1,2013-09-15 07:25:00,
2013-09-15 02:30:00,70.7,59.6,29.95,South,180,1.1,10.3,68,-99.99,,,0.00,wxRedirect v1.1,2013-09-15 07:30:00,
2013-09-15 02:35:00,70.7,59.6,29.95,South,180,1.3,6.9,68,-99.99,,,0.00,wxRedirect v1.1,2013-09-15 07:35:00,
2013-09-15 02:41:00,70.5,59.4,29.95,SSE,157,2.9,8.3,68,-99.99,,,0.00,wxRedirect v1.1,2013-09-15 07:41:00,
2013-09-15 02:46:00,70.5,59.4,29.94,South,180,4.9,8.3,68,-99.99,,,0.00,wxRedirect v1.1,2013-09-15 07:46:00,
2013-09-15 02:51:00,70.5,59.4,29.94,South,180,2.5,9.4,68,-99.99,,,0.00,wxRedirect v1.1,2013-09-15 07:51:00,
2013-09-15 02:57:00,70.3,59.2,29.95,SSW,202,2.7,9.4,68,-99.99,,,0.00,wxRedirect v1.1,2013-09-15 07:57:00,
2013-09-15 03:02:00,70.3,59.2,29.94,SSE,157,4.0,8.9,68,-99.99,,,0.00,wxRedirect v1.1,2013-09-15 08:02:00,
2013-09-15 03:07:00,70.3,59.2,29.94,South,180,5.1,9.8,68,-99.99,,,0.00,wxRedirect v1.1,2013-09-15 08:07:00,
2013-09-15 03:13:00,70.3,59.2,29.94,SSE,157,4.5,9.8,68,-99.99,,,0.00,wxRedirect v1.1,2013-09-15 08:13:00,
2013-09-15 03:18:00,70.3,59.2,29.94,South,180,5.1,7.2,68,-99.99,,,0.00,wxRedirect v1.1,2013-09-15 08:18:00,
2013-09-15 03:23:00,70.3,59.2,29.94,South,180,4.5,9.2,68,-99.99,,,0.00,wxRedirect v1.1,2013-09-15 08:23:00,
2013-09-15 03:29:00,70.3,59.2,29.94,South,180,4.9,13.4,68,-99.99,,,0.00,wxRedirect v1.1,2013-09-15 08:29:00,
2013-09-15 03:34:00,70.3,59.2,29.94,South,180,2.0,10.5,68,-99.99,,,0.00,wxRedirect v1.1,2013-09-15 08:34:00,
2013-09-15 03:39:00,70.3,59.2,29.94,South,180,2.9,10.5,68,-99.99,,,0.00,wxRedirect v1.1,2013-09-15 08:39:00,
2013-09-15 03:45:00,70.2,59.1,29.94,SSE,157,1.6,10.5,68,-99.99,,,0.00,wxRedirect v1.1,2013-09-15 08:45:00,
2013-09-15 03:50:00,70.2,59.1,29.94,SSE,157,3.1,9.2,68,-99.99,,,0.00,wxRedirect v1.1,2013-09-15 08:50:00,
2013-09-15 03:55:00,70.0,58.9,29.94,South,180,4.5,9.2,68,-99.99,,,0.00,wxRedirect v1.1,2013-09-15 08:55:00,
2013-09-15 04:01:00,70.0,58.9,29.94,South,180,3.1,8.7,68,-99.99,,,0.00,wxRedirect v1.1,2013-09-15 09:01:00,
2013-09-15 04:06:00,70.0,58.9,29.94,South,180,1.8,5.4,68,-99.99,,,0.00,wxRedirect v1.1,2013-09-15 09:06:00,
2013-09-15 04:11:00,70.0,58.9,29.94,SSE,157,3.1,9.2,68,-99.99,,,0.00,wxRedirect v1.1,2013-09-15 09:11:00,
2013-09-15 04:17:00,70.0,58.9,29.94,South,180,5.4,9.2,68,-99.99,,,0.00,wxRedirect v1.1,2013-09-15 09:17:00,
2013-09-15 04:22:00,69.8,58.7,29.94,SSE,157,4.7,9.4,68,-99.99,,,0.00,wxRedirect v1.1,2013-09-15 09:22:00,
2013-09-15 04:27:00,69.8,58.7,29.94,SSE,157,4.0,11.2,68,-99.99,,,0.00,wxRedirect v1.1,2013-09-15 09:27:00,
2013-09-15 04:33:00,69.6,58.5,29.94,South,180,5.1,11.2,68,-99.99,,,0.00,wxRedirect v1.1,2013-09-15 09:33:00,
2013-09-15 04:38:00,69.6,58.5,29.95,South,180,6.3,14.5,68,-99.99,,,0.00,wxRedirect v1.1,2013-09-15 09:38:00,
2013-09-15 04:43:00,69.6,58.5,29.95,South,180,5.4,14.5,68,-99.99,,,0.00,wxRedirect v1.1,2013-09-15 09:43:00,
2013-09-15 04:49:00,69.6,58.9,29.95,SSE,157,3.1,10.1,69,-99.99,,,0.00,wxRedirect v1.1,2013-09-15 09:49:00,
2013-09-15 04:54:00,69.6,58.9,29.94,South,180,2.7,10.1,69,-99.99,,,0.00,wxRedirect v1.1,2013-09-15 09:54:00,
2013-09-15 04:59:00,69.4,58.8,29.95,SW,225,8.3,8.9,69,-99.99,,,0.00,wxRedirect v1.1,2013-09-15 09:59:00,
2013-09-15 05:05:00,69.4,58.8,29.95,South,180,2.5,8.9,69,-99.99,,,0.00,wxRedirect v1.1,2013-09-15 10:05:00,
2013-09-15 05:10:00,69.4,58.8,29.95,South,180,4.0,11.6,69,-99.99,,,0.00,wxRedirect v1.1,2013-09-15 10:10:00,
2013-09-15 05:15:00,69.3,58.6,29.95,South,180,2.7,11.6,69,-99.99,,,0.00,wxRedirect v1.1,2013-09-15 10:15:00,
2013-09-15 05:21:00,69.3,58.6,29.95,South,180,6.5,8.9,69,-99.99,,,0.00,wxRedirect v1.1,2013-09-15 10:21:00,
2013-09-15 05:26:00,69.3,58.6,29.95,South,180,5.6,7.2,69,-99.99,,,0.00,wxRedirect v1.1,2013-09-15 10:26:00,
2013-09-15 05:31:00,69.3,59.1,29.95,SSE,157,1.3,10.3,70,-99.99,,,0.00,wxRedirect v1.1,2013-09-15 10:31:00,
2013-09-15 05:37:00,69.3,59.1,29.95,SSE,157,4.0,10.7,70,-99.99,,,0.00,wxRedirect v1.1,2013-09-15 10:37:00,
2013-09-15 05:42:00,69.3,59.1,29.95,SSE,157,2.9,12.8,70,-99.99,,,0.00,wxRedirect v1.1,2013-09-15 10:42:00,
2013-09-15 05:47:00,69.3,59.1,29.95,SSE,157,6.7,12.8,70,-99.99,,,0.00,wxRedirect v1.1,2013-09-15 10:47:00,
2013-09-15 05:53:00,69.3,59.1,29.95,South,180,6.5,9.4,70,-99.99,,,0.00,wxRedirect v1.1,2013-09-15 10:53:00,
2013-09-15 05:58:00,69.1,58.9,29.95,SSW,202,11.0,13.6,70,-99.99,,,0.00,wxRedirect v1.1,2013-09-15 10:58:00,
2013-09-15 06:03:00,69.1,58.9,29.95,South,180,7.6,13.6,70,-99.99,,,0.00,wxRedirect v1.1,2013-09-15 11:03:00,
2013-09-15 06:09:00,69.1,58.9,29.95,South,180,5.4,8.3,70,-99.99,,,0.00,wxRedirect v1.1,2013-09-15 11:09:00,
2013-09-15 06:14:00,68.9,58.7,29.95,SSE,157,9.8,9.8,70,-99.99,,,0.00,wxRedirect v1.1,2013-09-15 11:14:00,
2013-09-15 06:19:00,68.9,58.7,29.96,SSE,157,6.0,9.8,70,-99.99,,,0.00,wxRedirect v1.1,2013-09-15 11:19:00,
2013-09-15 06:25:00,68.7,58.6,29.96,South,180,2.5,8.5,70,-99.99,,,0.00,wxRedirect v1.1,2013-09-15 11:25:00,
2013-09-15 06:30:00,68.7,58.6,29.96,SSW,202,4.5,7.4,70,-99.99,,,0.00,wxRedirect v1.1,2013-09-15 11:30:00,
2013-09-15 06:35:00,68.5,58.4,29.96,South,180,0.0,5.6,70,-99.99,,,0.00,wxRedirect v1.1,2013-09-15 11:35:00,
2013-09-15 06:41:00,68.5,58.4,29.96,SSE,157,0.2,6.3,70,-99.99,,,0.00,wxRedirect v1.1,2013-09-15 11:41:00,
2013-09-15 06:46:00,68.5,58.4,29.96,South,180,10.1,10.1,70,-99.99,,,0.00,wxRedirect v1.1,2013-09-15 11:46:00,
2013-09-15 06:51:00,68.4,58.6,29.96,SSE,157,4.9,10.1,71,-99.99,,,0.00,wxRedirect v1.1,2013-09-15 11:51:00,
2013-09-15 06:57:00,68.2,58.5,29.96,South,180,2.9,8.3,71,-99.99,,,0.00,wxRedirect v1.1,2013-09-15 11:57:00,
2013-09-15 07:02:00,68.2,58.5,29.96,SSW,202,7.6,8.3,71,-99.99,,,0.00,wxRedirect v1.1,2013-09-15 12:02:00,
2013-09-15 07:07:00,68.2,58.5,29.96,South,180,4.3,11.0,71,-99.99,,,0.00,wxRedirect v1.1,2013-09-15 12:07:00,
2013-09-15 07:13:00,67.8,58.1,29.96,SSE,157,4.0,9.6,71,-99.99,,,0.00,wxRedirect v1.1,2013-09-15 12:13:00,
2013-09-15 07:18:00,67.8,58.5,29.96,South,180,4.9,9.6,72,-99.99,,,0.00,wxRedirect v1.1,2013-09-15 12:18:00,
2013-09-15 07:23:00,67.8,58.5,29.96,South,180,4.3,9.8,72,-99.99,,,0.00,wxRedirect v1.1,2013-09-15 12:23:00,
2013-09-15 07:29:00,67.8,58.5,29.97,SSW,202,2.5,9.8,72,-99.99,,,0.00,wxRedirect v1.1,2013-09-15 12:29:00,
2013-09-15 07:34:00,67.6,58.3,29.97,South,180,6.9,10.5,72,-99.99,,,0.00,wxRedirect v1.1,2013-09-15 12:34:00,
2013-09-15 07:39:00,67.6,58.3,29.97,SSE,157,6.3,11.0,72,-99.99,,,0.00,wxRedirect v1.1,2013-09-15 12:39:00,
2013-09-15 07:45:00,67.6,58.3,29.97,South,180,5.4,11.4,72,-99.99,,,0.00,wxRedirect v1.1,2013-09-15 12:45:00,
2013-09-15 07:50:00,67.6,58.3,29.97,South,180,1.1,10.3,72,-99.99,,,0.00,wxRedirect v1.1,2013-09-15 12:50:00,
2013-09-15 07:55:00,67.6,58.7,29.97,South,180,3.4,8.7,73,-99.99,,,0.00,wxRedirect v1.1,2013-09-15 12:55:00,
2013-09-15 08:01:00,67.8,58.9,29.97,SSW,202,4.0,10.3,73,-99.99,,,0.00,wxRedirect v1.1,2013-09-15 13:01:00,
2013-09-15 08:06:00,67.8,58.9,29.97,SSE,157,4.0,11.0,73,-99.99,,,0.00,wxRedirect v1.1,2013-09-15 13:06:00,
2013-09-15 08:11:00,67.8,58.9,29.97,SSE,157,0.0,11.0,73,-99.99,,,0.00,wxRedirect v1.1,2013-09-15 13:11:00,
2013-09-15 08:17:00,68.0,59.1,29.97,South,180,7.4,10.7,73,-99.99,,,0.00,wxRedirect v1.1,2013-09-15 13:17:00,
2013-09-15 08:22:00,68.2,59.2,29.96,South,180,5.6,9.2,73,-99.99,,,0.00,wxRedirect v1.1,2013-09-15 13:22:00,
2013-09-15 08:27:00,68.5,59.2,29.97,South,180,6.9,12.8,72,-99.99,,,0.00,wxRedirect v1.1,2013-09-15 13:27:00,
2013-09-15 08:33:00,68.7,59.3,29.97,SSE,157,8.5,12.8,72,-99.99,,,0.00,wxRedirect v1.1,2013-09-15 13:33:00,
2013-09-15 08:38:00,69.3,59.8,29.97,SSE,157,12.3,12.3,72,-99.99,,,0.00,wxRedirect v1.1,2013-09-15 13:38:00,
2013-09-15 08:43:00,69.6,59.8,29.97,South,180,11.9,13.4,71,-99.99,,,0.00,wxRedirect v1.1,2013-09-15 13:43:00,
2013-09-15 08:49:00,70.2,60.3,29.97,South,180,4.0,13.4,71,-99.99,,,0.00,wxRedirect v1.1,2013-09-15 13:49:00,
2013-09-15 08:54:00,70.5,60.3,29.97,SSE,157,16.6,16.6,70,-99.99,,,0.00,wxRedirect v1.1,2013-09-15 13:54:00,
2013-09-15 08:59:00,70.7,60.0,29.97,SSE,157,2.7,16.6,69,-99.99,,,0.00,wxRedirect v1.1,2013-09-15 13:59:00,
2013-09-15 09:05:00,71.2,60.5,29.97,SSE,157,5.8,13.0,69,-99.99,,,0.00,wxRedirect v1.1,2013-09-15 14:05:00,
2013-09-15 09:10:00,71.6,60.5,29.97,South,180,14.5,14.5,68,-99.99,,,0.00,wxRedirect v1.1,2013-09-15 14:10:00,
2013-09-15 09:15:00,72.1,61.0,29.97,SSE,157,4.0,14.5,68,-99.99,,,0.00,wxRedirect v1.1,2013-09-15 14:15:00,
2013-09-15 09:21:00,72.9,61.7,29.97,South,180,6.0,11.4,67,-99.99,,,0.00,wxRedirect v1.1,2013-09-15 14:21:00,
2013-09-15 09:26:00,73.6,62.0,29.98,SSW,202,11.6,11.6,67,-99.99,,,0.00,wxRedirect v1.1,2013-09-15 14:26:00,
2013-09-15 09:31:00,74.1,62.0,29.98,SSE,157,5.8,14.8,66,-99.99,,,0.00,wxRedirect v1.1,2013-09-15 14:31:00,
2013-09-15 09:37:00,74.8,62.3,29.97,South,180,4.5,15.4,65,-99.99,,,0.00,wxRedirect v1.1,2013-09-15 14:37:00,
2013-09-15 09:42:00,75.4,62.3,29.98,South,180,9.8,10.1,64,-99.99,,,0.00,wxRedirect v1.1,2013-09-15 14:42:00,
2013-09-15 09:47:00,76.3,62.7,29.98,South,180,3.4,9.8,63,-99.99,,,0.00,wxRedirect v1.1,2013-09-15 14:47:00,
2013-09-15 09:48:00,78.1,63.4,29.98,South,180,5.4,13.0,61,-99.99,,,0.00,wxRedirect v1.1,2013-09-15 14:48:00,
2013-09-15 09:50:00,78.1,63.6,29.98,SSW,202,5.6,13.0,61,-99.99,,,0.00,wxRedirect v1.1,2013-09-15 14:50:00,
2013-09-15 09:51:00,78.4,63.9,29.98,SSW,202,15.4,15.4,61,-99.99,,,0.00,wxRedirect v1.1,2013-09-15 14:51:00,
2013-09-15 09:53:00,76.8,63.2,29.98,South,180,6.7,11.4,63,-99.99,,,0.00,wxRedirect v1.1,2013-09-15 14:53:00,
2013-09-15 09:54:00,78.6,63.7,29.98,SSE,157,17.7,17.7,60,-99.99,,,0.00,wxRedirect v1.1,2013-09-15 14:54:00,
2013-09-15 09:56:00,79.0,64.0,29.98,SW,225,7.8,17.7,60,-99.99,,,0.00,wxRedirect v1.1,2013-09-15 14:56:00,
2013-09-15 09:58:00,77.5,63.5,29.98,SSE,157,7.4,11.6,62,-99.99,,,0.00,wxRedirect v1.1,2013-09-15 14:58:00,
2013-09-15 10:00:00,79.5,64.0,29.99,SW,225,4.9,17.7,59,-99.99,,,0.00,wxRedirect v1.1,2013-09-15 15:00:00,
2013-09-15 10:03:00,78.4,63.6,29.98,SSW,202,6.7,13.0,61,-99.99,,,0.00,wxRedirect v1.1,2013-09-15 15:03:00,
2013-09-15 10:04:00,80.1,64.0,29.98,SSE,157,6.9,21.3,58,-99.99,,,0.00,wxRedirect v1.1,2013-09-15 15:04:00,
2013-09-15 10:06:00,80.2,64.1,29.98,SSW,202,11.6,21.3,58,-99.99,,,0.00,wxRedirect v1.1,2013-09-15 15:06:00,
2013-09-15 10:08:00,80.4,63.8,29.99,SSW,202,12.8,21.3,57,-99.99,,,0.00,wxRedirect v1.1,2013-09-15 15:08:00,
2013-09-15 10:09:00,78.8,63.9,29.98,South,180,3.6,17.7,60,-99.99,,,0.00,wxRedirect v1.1,2013-09-15 15:09:00,
2013-09-15 10:10:00,80.6,63.9,29.99,SW,225,3.8,21.3,57,-99.99,,,0.00,wxRedirect v1.1,2013-09-15 15:10:00,
2013-09-15 10:11:00,80.6,63.9,29.99,South,180,6.5,21.3,57,-99.99,,,0.00,wxRedirect v1.1,2013-09-15 15:11:00,
2013-09-15 10:13:00,80.8,64.1,29.99,South,180,10.7,12.8,57,-99.99,,,0.00,wxRedirect v1.1,2013-09-15 15:13:00,
2013-09-15 10:14:00,79.7,64.1,29.98,SSE,157,10.1,17.7,59,-99.99,,,0.00,wxRedirect v1.1,2013-09-15 15:14:00,
2013-09-15 10:15:00,81.1,64.4,29.99,SSW,202,10.3,12.8,57,-99.99,,,0.00,wxRedirect v1.1,2013-09-15 15:15:00,
2013-09-15 10:20:00,80.2,64.1,29.98,SSE,157,6.3,21.3,58,-99.99,,,0.00,wxRedirect v1.1,2013-09-15 15:20:00,
2013-09-15 10:25:00,80.8,64.1,29.99,SSW,202,4.3,21.3,57,-99.99,,,0.00,wxRedirect v1.1,2013-09-15 15:25:00,
2013-09-15 10:31:00,81.3,64.6,29.99,South,180,10.3,13.0,57,-99.99,,,0.00,wxRedirect v1.1,2013-09-15 15:31:00,
2013-09-15 10:36:00,81.5,64.2,29.99,South,180,4.0,14.8,56,-99.99,,,0.00,wxRedirect v1.1,2013-09-15 15:36:00,
2013-09-15 10:41:00,81.7,64.4,29.98,SSW,202,8.7,13.6,56,-99.99,,,0.00,wxRedirect v1.1,2013-09-15 15:41:00,
2013-09-15 10:47:00,82.0,64.2,29.99,SSW,202,7.6,13.4,55,-99.99,,,0.00,wxRedirect v1.1,2013-09-15 15:47:00,
2013-09-15 10:52:00,82.2,64.3,29.99,SW,225,4.3,12.8,55,-99.99,,,0.00,wxRedirect v1.1,2013-09-15 15:52:00,
2013-09-15 10:57:00,82.6,64.7,29.99,SSW,202,7.2,13.6,55,-99.99,,,0.00,wxRedirect v1.1,2013-09-15 15:57:00,
2013-09-15 11:03:00,82.8,64.3,29.99,SSW,202,10.1,14.3,54,-99.99,,,0.00,wxRedirect v1.1,2013-09-15 16:03:00,
2013-09-15 11:08:00,82.8,64.9,29.99,South,180,10.1,14.3,55,-99.99,,,0.00,wxRedirect v1.1,2013-09-15 16:08:00,
2013-09-15 11:13:00,82.8,64.9,29.98,SSW,202,3.6,10.3,55,-99.99,,,0.00,wxRedirect v1.1,2013-09-15 16:13:00,
2013-09-15 11:19:00,83.1,65.2,29.98,SSE,157,7.8,17.7,55,-99.99,,,0.00,wxRedirect v1.1,2013-09-15 16:19:00,
2013-09-15 11:24:00,83.7,65.2,29.98,South,180,3.1,16.6,54,-99.99,,,0.00,wxRedirect v1.1,2013-09-15 16:24:00,
2013-09-15 11:29:00,83.8,65.4,29.98,South,180,10.7,19.5,54,-99.99,,,0.00,wxRedirect v1.1,2013-09-15 16:29:00,
2013-09-15 11:35:00,84.0,65.1,29.98,SSW,202,5.1,19.5,53,-99.99,,,0.00,wxRedirect v1.1,2013-09-15 16:35:00,
2013-09-15 11:40:00,84.0,65.1,29.98,SSW,202,4.3,16.3,53,-99.99,,,0.00,wxRedirect v1.1,2013-09-15 16:40:00,
2013-09-15 11:45:00,84.4,65.4,29.98,SW,225,15.2,15.2,53,-99.99,,,0.00,wxRedirect v1.1,2013-09-15 16:45:00,
2013-09-15 11:51:00,84.7,65.7,29.98,South,180,15.9,15.9,53,-99.99,,,0.00,wxRedirect v1.1,2013-09-15 16:51:00,
2013-09-15 11:56:00,85.3,66.2,29.98,South,180,5.1,15.9,53,-99.99,,,0.00,wxRedirect v1.1,2013-09-15 16:56:00,
2013-09-15 12:01:00,85.6,66.0,29.98,South,180,8.7,17.0,52,-99.99,,,0.00,wxRedirect v1.1,2013-09-15 17:01:00,
2013-09-15 12:07:00,86.2,66.5,29.98,SSW,202,11.2,17.0,52,-99.99,,,0.00,wxRedirect v1.1,2013-09-15 17:07:00,
2013-09-15 12:12:00,86.2,66.5,29.98,SSE,157,9.6,11.2,52,-99.99,,,0.00,wxRedirect v1.1,2013-09-15 17:12:00,
2013-09-15 12:17:00,86.2,66.0,29.98,South,180,6.3,14.5,51,-99.99,,,0.00,wxRedirect v1.1,2013-09-15 17:17:00,
2013-09-15 12:23:00,86.5,66.3,29.97,SSW,202,9.4,14.5,51,-99.99,,,0.00,wxRedirect v1.1,2013-09-15 17:23:00,
2013-09-15 12:28:00,86.7,66.5,29.97,South,180,5.8,13.6,51,-99.99,,,0.00,wxRedirect v1.1,2013-09-15 17:28:00,
2013-09-15 12:33:00,86.7,66.5,29.97,SSW,202,8.1,13.4,51,-99.99,,,0.00,wxRedirect v1.1,2013-09-15 17:33:00,
2013-09-15 12:39:00,86.9,66.6,29.97,SSW,202,6.5,11.9,51,-99.99,,,0.00,wxRedirect v1.1,2013-09-15 17:39:00,
2013-09-15 12:44:00,87.4,67.1,29.97,SSE,157,8.1,12.1,51,-99.99,,,0.00,wxRedirect v1.1,2013-09-15 17:44:00,
2013-09-15 12:49:00,87.8,66.8,29.97,South,180,4.5,14.5,50,-99.99,,,0.00,wxRedirect v1.1,2013-09-15 17:49:00,
2013-09-15 12:55:00,88.2,67.2,29.98,South,180,2.0,15.4,50,-99.99,,,0.00,wxRedirect v1.1,2013-09-15 17:55:00,
2013-09-15 13:00:00,88.7,67.7,29.97,SSW,202,11.4,14.8,50,-99.99,,,0.00,wxRedirect v1.1,2013-09-15 18:00:00,
2013-09-15 13:05:00,89.1,67.4,29.97,SSE,157,4.5,13.0,49,-99.99,,,0.00,wxRedirect v1.1,2013-09-15 18:05:00,
2013-09-15 13:11:00,89.4,67.7,29.96,SSW,202,7.6,14.3,49,-99.99,,,0.00,wxRedirect v1.1,2013-09-15 18:11:00,
2013-09-15 13:16:00,90.0,67.6,29.97,WSW,247,8.7,14.3,48,-99.99,,,0.00,wxRedirect v1.1,2013-09-15 18:16:00,
2013-09-15 13:21:00,90.1,67.7,29.97,South,180,5.4,14.1,48,-99.99,,,0.00,wxRedirect v1.1,2013-09-15 18:21:00,
2013-09-15 13:27:00,90.1,67.1,29.96,SW,225,6.7,15.7,47,-99.99,,,0.00,wxRedirect v1.1,2013-09-15 18:27:00,
2013-09-15 13:32:00,90.3,67.2,29.96,SSW,202,4.7,15.7,47,-99.99,,,0.00,wxRedirect v1.1,2013-09-15 18:32:00,
2013-09-15 13:37:00,90.3,67.2,29.96,WSW,247,2.0,11.2,47,-99.99,,,0.00,wxRedirect v1.1,2013-09-15 18:37:00,
2013-09-15 13:43:00,90.3,67.2,29.96,SSE,157,4.5,9.8,47,-99.99,,,0.00,wxRedirect v1.1,2013-09-15 18:43:00,
2013-09-15 13:48:00,90.3,67.2,29.96,South,180,3.4,13.9,47,-99.99,,,0.00,wxRedirect v1.1,2013-09-15 18:48:00,
2013-09-15 13:53:00,90.3,67.2,29.96,SE,135,11.9,13.9,47,-99.99,,,0.00,wxRedirect v1.1,2013-09-15 18:53:00,
2013-09-15 13:59:00,90.3,67.2,29.96,South,180,3.1,11.9,47,-99.99,,,0.00,wxRedirect v1.1,2013-09-15 18:59:00,
2013-09-15 14:04:00,90.3,67.2,29.96,SSE,157,5.8,14.8,47,-99.99,,,0.00,wxRedirect v1.1,2013-09-15 19:04:00,
2013-09-15 14:05:00,90.0,66.9,29.95,SSW,202,6.5,10.5,47,-99.99,,,0.00,wxRedirect v1.1,2013-09-15 19:05:00,
2013-09-15 14:06:00,90.0,66.9,29.95,South,180,7.8,9.2,47,-99.99,,,0.00,wxRedirect v1.1,2013-09-15 19:06:00,
2013-09-15 14:07:00,90.0,66.9,29.95,SSW,202,6.5,13.9,47,-99.99,,,0.00,wxRedirect v1.1,2013-09-15 19:07:00,
2013-09-15 14:08:00,90.0,66.9,29.95,SSW,202,4.0,13.9,47,-99.99,,,0.00,wxRedirect v1.1,2013-09-15 19:08:00,
2013-09-15 14:09:00,90.1,67.1,29.96,South,180,10.5,14.8,47,-99.99,,,0.00,wxRedirect v1.1,2013-09-15 19:09:00,
2013-09-15 14:11:00,90.0,66.9,29.95,SSW,202,6.3,13.9,47,-99.99,,,0.00,wxRedirect v1.1,2013-09-15 19:11:00,
2013-09-15 14:12:00,90.0,66.9,29.96,South,180,2.0,13.9,47,-99.99,,,0.00,wxRedirect v1.1,2013-09-15 19:12:00,
2013-09-15 14:14:00,90.1,67.1,29.95,South,180,8.3,13.9,47,-99.99,,,0.00,wxRedirect v1.1,2013-09-15 19:14:00,
2013-09-15 14:15:00,90.0,66.9,29.95,South,180,4.3,10.5,47,-99.99,,,0.00,wxRedirect v1.1,2013-09-15 19:15:00,
2013-09-15 14:18:00,90.1,67.1,29.95,South,180,3.4,9.8,47,-99.99,,,0.00,wxRedirect v1.1,2013-09-15 19:18:00,
2013-09-15 14:19:00,90.1,67.1,29.95,South,180,10.5,10.5,47,-99.99,,,0.00,wxRedirect v1.1,2013-09-15 19:19:00,
2013-09-15 14:20:00,90.0,66.9,29.95,South,180,4.3,13.9,47,-99.99,,,0.00,wxRedirect v1.1,2013-09-15 19:20:00,
2013-09-15 14:25:00,90.3,66.6,29.95,SW,225,1.8,10.5,46,-99.99,,,0.00,wxRedirect v1.1,2013-09-15 19:25:00,
2013-09-15 14:26:00,90.0,66.9,29.96,SSE,157,6.9,13.9,47,-99.99,,,0.00,wxRedirect v1.1,2013-09-15 19:26:00,
2013-09-15 14:27:00,90.3,66.6,29.95,SW,225,3.8,10.5,46,-99.99,,,0.00,wxRedirect v1.1,2013-09-15 19:27:00,
2013-09-15 14:29:00,90.5,66.8,29.95,South,180,4.0,9.2,46,-99.99,,,0.00,wxRedirect v1.1,2013-09-15 19:29:00,
2013-09-15 14:31:00,90.5,66.8,29.95,South,180,0.0,8.7,46,-99.99,,,0.00,wxRedirect v1.1,2013-09-15 19:31:00,
2013-09-15 14:32:00,90.1,67.1,29.95,South,180,2.2,9.8,47,-99.99,,,0.00,wxRedirect v1.1,2013-09-15 19:32:00,
2013-09-15 14:35:00,90.7,66.9,29.95,South,180,5.6,8.5,46,-99.99,,,0.00,wxRedirect v1.1,2013-09-15 19:35:00,
2013-09-15 14:36:00,90.7,66.9,29.95,SSW,202,2.0,8.5,46,-99.99,,,0.00,wxRedirect v1.1,2013-09-15 19:36:00,
2013-09-15 14:37:00,90.3,67.2,29.95,South,180,4.5,10.5,47,-99.99,,,0.00,wxRedirect v1.1,2013-09-15 19:37:00,
2013-09-15 14:38:00,90.7,66.9,29.95,SSW,202,4.7,8.5,46,-99.99,,,0.00,wxRedirect v1.1,2013-09-15 19:38:00,
2013-09-15 14:40:00,95.5,71.4,29.95,South,180,1.1,6.9,41,-99.99,,,0.00,wxRedirect v1.1,2013-09-15 19:40:00,
2013-09-15 14:41:00,91.0,67.2,29.95,South,180,0.0,6.9,46,-99.99,,,0.00,wxRedirect v1.1,2013-09-15 19:41:00,
2013-09-15 14:42:00,90.7,66.9,29.96,South,180,4.0,6.9,46,-99.99,,,0.00,wxRedirect v1.1,2013-09-15 19:42:00,
2013-09-15 14:43:00,90.5,66.8,29.95,SSW,202,5.4,8.7,46,-99.99,,,0.00,wxRedirect v1.1,2013-09-15 19:43:00,
2013-09-15 14:44:00,90.7,66.9,29.96,SSW,202,3.8,12.5,46,-99.99,,,0.00,wxRedirect v1.1,2013-09-15 19:44:00,
2013-09-15 14:45:00,90.7,66.9,29.96,SSW,202,6.3,12.5,46,-99.99,,,0.00,wxRedirect v1.1,2013-09-15 19:45:00,
2013-09-15 14:46:00,90.7,66.9,29.96,SSW,202,2.5,12.5,46,-99.99,,,0.00,wxRedirect v1.1,2013-09-15 19:46:00,
2013-09-15 14:47:00,90.7,66.9,29.96,SW,225,0.0,12.5,46,-99.99,,,0.00,wxRedirect v1.1,2013-09-15 19:47:00,
2013-09-15 14:48:00,90.7,66.9,29.95,SW,225,3.1,8.5,46,-99.99,,,0.00,wxRedirect v1.1,2013-09-15 19:48:00,
2013-09-15 14:50:00,90.5,66.8,29.96,SSW,202,2.7,12.5,46,-99.99,,,0.00,wxRedirect v1.1,2013-09-15 19:50:00,
2013-09-15 14:51:00,90.7,66.9,29.96,South,180,0.0,12.5,46,-99.99,,,0.00,wxRedirect v1.1,2013-09-15 19:51:00,
2013-09-15 14:53:00,90.7,66.9,29.96,South,180,0.0,12.5,46,-99.99,,,0.00,wxRedirect v1.1,2013-09-15 19:53:00,
2013-09-15 14:54:00,91.2,66.8,29.95,South,180,0.0,6.9,45,-99.99,,,0.00,wxRedirect v1.1,2013-09-15 19:54:00,
2013-09-15 14:56:00,90.7,66.8,29.96,SW,225,2.9,4.5,46,-99.99,,,0.00,wxRedirect v1.1,2013-09-15 19:56:00,
2013-09-15 14:57:00,90.5,66.8,29.96,SW,225,0.0,4.5,46,-99.99,,,0.00,wxRedirect v1.1,2013-09-15 19:57:00,
2013-09-15 14:58:00,90.5,66.8,29.96,SW,225,0.0,4.5,46,-99.99,,,0.00,wxRedirect v1.1,2013-09-15 19:58:00,
2013-09-15 15:00:00,90.5,66.8,29.96,SW,225,0.0,4.5,46,-99.99,,,0.00,wxRedirect v1.1,2013-09-15 20:00:00,
2013-09-15 15:01:00,90.7,66.9,29.96,SW,225,0.0,12.5,46,-99.99,,,0.00,wxRedirect v1.1,2013-09-15 20:01:00,
2013-09-15 15:02:00,90.5,66.8,29.96,WSW,247,1.6,4.5,46,-99.99,,,0.00,wxRedirect v1.1,2013-09-15 20:02:00,
2013-09-15 15:05:00,90.5,67.4,29.96,WSW,247,0.0,2.9,47,-99.99,,,0.00,wxRedirect v1.1,2013-09-15 20:05:00,
2013-09-15 15:06:00,90.7,66.9,29.96,SW,225,4.3,6.3,46,-99.99,,,0.00,wxRedirect v1.1,2013-09-15 20:06:00,
2013-09-15 15:12:00,90.5,66.8,29.96,SW,225,0.0,4.5,46,-99.99,,,0.00,wxRedirect v1.1,2013-09-15 20:12:00,
2013-09-15 15:18:00,90.5,67.4,29.96,WSW,247,0.0,4.5,47,-99.99,,,0.00,wxRedirect v1.1,2013-09-15 20:18:00,
2013-09-15 15:23:00,90.7,67.6,29.96,WSW,247,0.0,1.6,47,-99.99,,,0.00,wxRedirect v1.1,2013-09-15 20:23:00,
2013-09-15 15:28:00,90.7,68.2,29.95,WSW,247,0.0,0.0,48,-99.99,,,0.00,wxRedirect v1.1,2013-09-15 20:28:00,
2013-09-15 15:34:00,90.7,68.2,29.95,WSW,247,0.0,0.0,48,-99.99,,,0.00,wxRedirect v1.1,2013-09-15 20:34:00,
2013-09-15 15:39:00,90.7,68.2,29.95,WSW,247,0.0,0.0,48,-99.99,,,0.00,wxRedirect v1.1,2013-09-15 20:39:00,
2013-09-15 15:44:00,90.7,68.9,29.95,WSW,247,0.0,0.0,49,-99.99,,,0.00,wxRedirect v1.1,2013-09-15 20:44:00,
2013-09-15 15:50:00,90.5,68.1,29.94,NW,315,0.0,0.4,48,-99.99,,,0.00,wxRedirect v1.1,2013-09-15 20:50:00,
2013-09-15 15:55:00,90.5,68.1,29.94,NNW,337,0.0,3.1,48,-99.99,,,0.00,wxRedirect v1.1,2013-09-15 20:55:00,
2013-09-15 16:00:00,90.5,67.4,29.94,NNW,337,0.0,3.1,47,-99.99,,,0.00,wxRedirect v1.1,2013-09-15 21:00:00,
2013-09-15 16:03:00,90.3,68.5,29.93,North,0,0.0,0.0,49,-99.99,,,0.00,wxRedirect v1.1,2013-09-15 21:03:00,
2013-09-15 16:06:00,90.5,68.1,29.93,NNW,337,0.0,1.8,48,-99.99,,,0.00,wxRedirect v1.1,2013-09-15 21:06:00,
2013-09-15 16:07:00,90.3,68.5,29.93,North,0,0.0,0.0,49,-99.99,,,0.00,wxRedirect v1.1,2013-09-15 21:07:00,
2013-09-15 16:10:00,90.1,68.4,29.94,North,0,0.0,0.0,49,-99.99,,,0.00,wxRedirect v1.1,2013-09-15 21:10:00,
2013-09-15 16:11:00,90.5,68.1,29.93,NNW,337,0.0,0.0,48,-99.99,,,0.00,wxRedirect v1.1,2013-09-15 21:11:00,
2013-09-15 16:17:00,90.3,68.5,29.93,North,0,0.0,0.0,49,-99.99,,,0.00,wxRedirect v1.1,2013-09-15 21:17:00,
2013-09-15 16:21:00,89.8,68.1,29.94,ENE,67,0.0,0.0,49,-99.99,,,0.00,wxRedirect v1.1,2013-09-15 21:21:00,
2013-09-15 16:23:00,90.3,68.5,29.93,North,0,0.0,0.0,49,-99.99,,,0.00,wxRedirect v1.1,2013-09-15 21:23:00,
2013-09-15 16:25:00,89.8,68.1,29.94,ENE,67,0.0,0.0,49,-99.99,,,0.00,wxRedirect v1.1,2013-09-15 21:25:00,
2013-09-15 16:28:00,90.0,68.2,29.94,ENE,67,0.0,0.0,49,-99.99,,,0.00,wxRedirect v1.1,2013-09-15 21:28:00,
2013-09-15 16:31:00,89.4,67.7,29.94,ESE,112,0.0,1.1,49,-99.99,,,0.00,wxRedirect v1.1,2013-09-15 21:31:00,
2013-09-15 16:32:00,89.4,67.1,29.94,ESE,112,0.0,1.1,48,-99.99,,,0.00,wxRedirect v1.1,2013-09-15 21:32:00,
2013-09-15 16:33:00,89.8,68.1,29.93,ENE,67,0.0,0.0,49,-99.99,,,0.00,wxRedirect v1.1,2013-09-15 21:33:00,
2013-09-15 16:37:00,89.4,67.1,29.94,ESE,112,0.0,0.9,48,-99.99,,,0.00,wxRedirect v1.1,2013-09-15 21:37:00,
2013-09-15 16:39:00,89.8,68.1,29.94,ENE,67,0.0,0.0,49,-99.99,,,0.00,wxRedirect v1.1,2013-09-15 21:39:00,
2013-09-15 16:43:00,89.4,67.7,29.93,ESE,112,0.0,0.0,49,-99.99,,,0.00,wxRedirect v1.1,2013-09-15 21:43:00,
2013-09-15 16:44:00,89.4,67.7,29.94,ESE,112,0.0,1.1,49,-99.99,,,0.00,wxRedirect v1.1,2013-09-15 21:44:00,
2013-09-15 16:45:00,89.4,67.7,29.93,ESE,112,0.0,0.0,49,-99.99,,,0.00,wxRedirect v1.1,2013-09-15 21:45:00,
2013-09-15 16:49:00,89.4,67.1,29.94,ESE,112,0.0,0.9,48,-99.99,,,0.00,wxRedirect v1.1,2013-09-15 21:49:00,
2013-09-15 16:55:00,89.4,67.7,29.93,ESE,112,0.0,0.0,49,-99.99,,,0.00,wxRedirect v1.1,2013-09-15 21:55:00,
2013-09-15 16:56:00,89.4,68.4,29.93,ENE,67,0.0,3.6,50,-99.99,,,0.00,wxRedirect v1.1,2013-09-15 21:56:00,
2013-09-15 16:59:00,89.2,68.2,29.93,East,90,0.0,4.7,50,-99.99,,,0.00,wxRedirect v1.1,2013-09-15 21:59:00,
2013-09-15 17:00:00,89.4,67.7,29.93,East,90,0.0,0.0,49,-99.99,,,0.00,wxRedirect v1.1,2013-09-15 22:00:00,
2013-09-15 17:02:00,89.2,68.2,29.94,East,90,0.0,4.7,50,-99.99,,,0.00,wxRedirect v1.1,2013-09-15 22:02:00,
2013-09-15 17:04:00,89.2,68.8,29.94,NNE,22,3.1,4.7,51,-99.99,,,0.00,wxRedirect v1.1,2013-09-15 22:04:00,
2013-09-15 17:05:00,89.4,67.7,29.93,NE,45,0.0,3.6,49,-99.99,,,0.00,wxRedirect v1.1,2013-09-15 22:05:00,
2013-09-15 17:11:00,89.2,68.4,29.93,East,90,4.7,4.7,50,-99.99,,,0.00,wxRedirect v1.1,2013-09-15 22:11:00,
2013-09-15 17:12:00,88.7,67.7,29.94,ESE,112,3.8,6.9,50,-99.99,,,0.00,wxRedirect v1.1,2013-09-15 22:12:00,
2013-09-15 17:14:00,88.5,67.6,29.94,NE,45,11.0,11.0,50,-99.99,,,0.00,wxRedirect v1.1,2013-09-15 22:14:00,
2013-09-15 17:16:00,89.2,68.8,29.93,East,90,0.0,4.7,51,-99.99,,,0.00,wxRedirect v1.1,2013-09-15 22:16:00,
2013-09-15 17:21:00,89.1,68.1,29.94,SE,135,3.4,6.9,50,-99.99,,,0.00,wxRedirect v1.1,2013-09-15 22:21:00,
2013-09-15 17:27:00,88.7,67.7,29.94,NE,45,2.5,6.9,50,-99.99,,,0.00,wxRedirect v1.1,2013-09-15 22:27:00,
2013-09-15 17:32:00,88.3,67.4,29.94,NE,45,1.6,13.6,50,-99.99,,,0.00,wxRedirect v1.1,2013-09-15 22:32:00,
2013-09-15 17:37:00,88.0,67.1,29.94,ENE,67,0.0,13.6,50,-99.99,,,0.00,wxRedirect v1.1,2013-09-15 22:37:00,
2013-09-15 17:43:00,87.8,67.5,29.94,ENE,67,0.0,3.1,51,-99.99,,,0.00,wxRedirect v1.1,2013-09-15 22:43:00,
2013-09-15 17:48:00,87.8,67.5,29.95,NNE,22,1.1,8.7,51,-99.99,,,0.00,wxRedirect v1.1,2013-09-15 22:48:00,
2013-09-15 17:53:00,87.4,67.7,29.95,NE,45,9.2,12.8,52,-99.99,,,0.00,wxRedirect v1.1,2013-09-15 22:53:00,
2013-09-15 17:59:00,86.7,67.0,29.98,North,0,2.9,11.0,52,-99.99,,,0.00,wxRedirect v1.1,2013-09-15 22:59:00,
2013-09-15 18:04:00,86.2,66.5,29.99,NNW,337,6.9,15.0,52,-99.99,,,0.00,wxRedirect v1.1,2013-09-15 23:04:00,
2013-09-15 18:09:00,85.3,65.7,29.97,NNW,337,8.9,23.9,52,-99.99,,,0.00,wxRedirect v1.1,2013-09-15 23:09:00,
2013-09-15 18:15:00,84.7,65.7,29.99,NNW,337,4.5,23.9,53,-99.99,,,0.00,wxRedirect v1.1,2013-09-15 23:15:00,
2013-09-15 18:20:00,84.2,65.8,29.99,North,0,13.4,13.4,54,-99.99,,,0.00,wxRedirect v1.1,2013-09-15 23:20:00,
2013-09-15 18:25:00,83.7,66.3,29.99,North,0,7.6,13.4,56,-99.99,,,0.00,wxRedirect v1.1,2013-09-15 23:25:00,
2013-09-15 18:31:00,82.9,66.1,29.99,NE,45,8.9,14.1,57,-99.99,,,0.00,wxRedirect v1.1,2013-09-15 23:31:00,
2013-09-15 18:36:00,82.0,65.7,29.99,NNE,22,4.7,18.6,58,-99.99,,,0.00,wxRedirect v1.1,2013-09-15 23:36:00,
2013-09-15 18:41:00,81.1,65.4,30.00,NE,45,13.4,21.3,59,-99.99,,,0.00,wxRedirect v1.1,2013-09-15 23:41:00,
2013-09-15 18:47:00,80.4,65.8,30.00,NNE,22,0.4,21.3,61,-99.99,,,0.00,wxRedirect v1.1,2013-09-15 23:47:00,
2013-09-15 18:52:00,79.7,65.6,30.01,NE,45,2.0,11.9,62,-99.99,,,0.00,wxRedirect v1.1,2013-09-15 23:52:00,
2013-09-15 18:57:00,79.0,65.8,30.01,ESE,112,5.6,13.0,64,-99.99,,,0.00,wxRedirect v1.1,2013-09-15 23:57:00,
2013-09-15 19:03:00,78.6,65.8,30.00,NE,45,11.0,13.0,65,-99.99,,,0.00,wxRedirect v1.1,2013-09-16 00:03:00,
2013-09-15 19:08:00,78.4,66.5,29.99,SE,135,5.4,14.5,67,-99.99,,,0.00,wxRedirect v1.1,2013-09-16 00:08:00,
2013-09-15 19:13:00,77.9,66.0,29.99,NE,45,10.7,12.8,67,-99.99,,,0.00,wxRedirect v1.1,2013-09-16 00:13:00,
2013-09-15 19:19:00,77.5,66.1,29.99,ENE,67,0.0,12.8,68,-99.99,,,0.00,wxRedirect v1.1,2013-09-16 00:19:00,
2013-09-15 19:24:00,77.2,66.0,29.99,East,90,3.4,7.6,68,-99.99,,,0.00,wxRedirect v1.1,2013-09-16 00:24:00,
2013-09-15 19:29:00,77.0,65.7,29.98,ESE,112,0.0,7.6,68,-99.99,,,0.00,wxRedirect v1.1,2013-09-16 00:29:00,
2013-09-15 19:35:00,76.8,65.5,29.98,ESE,112,0.0,6.7,68,-99.99,,,0.00,wxRedirect v1.1,2013-09-16 00:35:00,
2013-09-15 19:40:00,76.8,65.5,29.98,East,90,6.3,7.8,68,-99.99,,,0.00,wxRedirect v1.1,2013-09-16 00:40:00,
2013-09-15 19:45:00,76.6,65.3,29.99,East,90,6.0,6.5,68,-99.99,,,0.00,wxRedirect v1.1,2013-09-16 00:45:00,
2013-09-15 19:51:00,76.6,65.3,29.99,ESE,112,0.0,6.9,68,-99.99,,,0.00,wxRedirect v1.1,2013-09-16 00:51:00,
2013-09-15 19:56:00,76.6,64.9,30.01,ESE,112,2.0,6.9,67,-99.99,,,0.00,wxRedirect v1.1,2013-09-16 00:56:00,
2013-09-15 20:01:00,76.6,64.9,30.01,NE,45,0.0,4.0,67,-99.99,,,0.00,wxRedirect v1.1,2013-09-16 01:01:00,
2013-09-15 20:07:00,76.6,64.9,30.03,NE,45,0.0,3.4,67,-99.99,,,0.00,wxRedirect v1.1,2013-09-16 01:07:00,
2013-09-15 20:12:00,76.8,65.0,30.04,NE,45,0.0,0.0,67,-99.99,,,0.00,wxRedirect v1.1,2013-09-16 01:12:00,
2013-09-15 20:17:00,76.8,65.5,30.04,NE,45,0.0,0.0,68,-99.99,,,0.00,wxRedirect v1.1,2013-09-16 01:17:00,
2013-09-15 20:23:00,76.6,65.8,30.03,NNE,22,2.0,7.6,69,-99.99,,,0.00,wxRedirect v1.1,2013-09-16 01:23:00,
2013-09-15 20:28:00,76.3,65.4,30.04,NE,45,0.0,7.6,69,-99.99,,,0.00,wxRedirect v1.1,2013-09-16 01:28:00,
2013-09-15 20:33:00,76.1,65.2,30.07,South,180,4.0,6.9,69,-99.99,,,0.00,wxRedirect v1.1,2013-09-16 01:33:00,
2013-09-15 20:39:00,75.9,65.0,30.07,SW,225,0.0,4.3,69,-99.99,,,0.00,wxRedirect v1.1,2013-09-16 01:39:00,
2013-09-15 20:44:00,75.7,65.3,30.07,NNE,22,0.9,5.6,70,0.02,,,0.02,wxRedirect v1.1,2013-09-16 01:44:00,
2013-09-15 20:49:00,75.4,64.9,30.07,ENE,67,0.0,5.6,70,0.02,,,0.02,wxRedirect v1.1,2013-09-16 01:49:00,
2013-09-15 20:55:00,75.0,64.6,30.07,ENE,67,0.0,1.8,70,0.02,,,0.02,wxRedirect v1.1,2013-09-16 01:55:00,
2013-09-15 21:00:00,74.8,64.4,30.06,ESE,112,0.0,3.1,70,0.02,,,0.02,wxRedirect v1.1,2013-09-16 02:00:00,
2013-09-15 21:05:00,74.5,64.5,30.06,ESE,112,4.9,4.9,71,0.02,,,0.02,wxRedirect v1.1,2013-09-16 02:05:00,
2013-09-15 21:11:00,74.5,64.5,30.06,East,90,0.0,4.9,71,0.02,,,0.02,wxRedirect v1.1,2013-09-16 02:11:00,
2013-09-15 21:16:00,74.3,64.3,30.06,East,90,0.0,4.0,71,0.02,,,0.02,wxRedirect v1.1,2013-09-16 02:16:00,
2013-09-15 21:21:00,74.1,64.2,30.07,East,90,1.3,2.7,71,0.02,,,0.02,wxRedirect v1.1,2013-09-16 02:21:00,
2013-09-15 21:27:00,74.1,64.5,30.07,NE,45,3.1,3.6,72,0.02,,,0.02,wxRedirect v1.1,2013-09-16 02:27:00,
2013-09-15 21:32:00,73.9,64.4,30.07,NE,45,3.4,3.6,72,0.02,,,0.02,wxRedirect v1.1,2013-09-16 02:32:00,
2013-09-15 21:37:00,73.9,64.4,30.08,NE,45,5.4,8.7,72,0.00,,,0.02,wxRedirect v1.1,2013-09-16 02:37:00,
2013-09-15 21:43:00,73.8,64.2,30.09,NE,45,0.0,8.7,72,0.00,,,0.02,wxRedirect v1.1,2013-09-16 02:43:00,
2013-09-15 21:48:00,73.6,64.1,30.09,NE,45,6.3,6.3,72,0.00,,,0.02,wxRedirect v1.1,2013-09-16 02:48:00,
2013-09-15 21:53:00,73.2,63.7,30.08,NE,45,2.5,6.3,72,0.00,,,0.02,wxRedirect v1.1,2013-09-16 02:53:00,
2013-09-15 21:59:00,73.2,63.7,30.09,NNE,22,6.0,6.3,72,0.00,,,0.02,wxRedirect v1.1,2013-09-16 02:59:00,
2013-09-15 22:04:00,73.0,63.9,30.09,NE,45,1.6,7.8,73,0.00,,,0.02,wxRedirect v1.1,2013-09-16 03:04:00,
2013-09-15 22:09:00,73.0,63.9,30.09,NNE,22,4.5,8.5,73,0.00,,,0.02,wxRedirect v1.1,2013-09-16 03:09:00,
2013-09-15 22:15:00,73.0,63.9,30.08,NE,45,8.9,8.9,73,0.00,,,0.02,wxRedirect v1.1,2013-09-16 03:15:00,
2013-09-15 22:20:00,72.7,63.6,30.08,NNE,22,6.0,8.9,73,0.00,,,0.02,wxRedirect v1.1,2013-09-16 03:20:00,
2013-09-15 22:25:00,72.7,63.6,30.08,NE,45,9.8,9.8,73,0.00,,,0.02,wxRedirect v1.1,2013-09-16 03:25:00,
2013-09-15 22:31:00,72.5,63.4,30.07,NE,45,0.0,9.8,73,0.00,,,0.02,wxRedirect v1.1,2013-09-16 03:31:00,
2013-09-15 22:36:00,72.3,63.6,30.08,NNE,22,6.0,12.1,74,0.00,,,0.02,wxRedirect v1.1,2013-09-16 03:36:00,
2013-09-15 22:41:00,72.1,63.8,30.07,NE,45,5.1,12.1,75,0.00,,,0.02,wxRedirect v1.1,2013-09-16 03:41:00,
2013-09-15 22:47:00,72.0,64.0,30.07,NE,45,7.2,12.3,76,0.00,,,0.02,wxRedirect v1.1,2013-09-16 03:47:00,
2013-09-15 22:48:00,71.2,64.0,30.07,NE,45,4.7,7.4,78,0.02,,,0.04,wxRedirect v1.1,2013-09-16 03:48:00,
2013-09-15 22:49:00,71.2,64.0,30.08,NE,45,0.0,8.7,78,0.02,,,0.04,wxRedirect v1.1,2013-09-16 03:49:00,
2013-09-15 22:50:00,71.2,64.0,30.08,NE,45,4.0,8.7,78,0.02,,,0.04,wxRedirect v1.1,2013-09-16 03:50:00,
2013-09-15 22:51:00,71.2,64.0,30.08,NE,45,0.0,8.7,78,0.02,,,0.04,wxRedirect v1.1,2013-09-16 03:51:00,
2013-09-15 22:52:00,71.8,64.2,30.07,NE,45,4.7,12.3,77,0.02,,,0.04,wxRedirect v1.1,2013-09-16 03:52:00,
2013-09-15 22:53:00,71.2,64.0,30.08,NNE,22,8.1,8.7,78,0.02,,,0.04,wxRedirect v1.1,2013-09-16 03:53:00,
2013-09-15 22:54:00,71.2,64.0,30.09,NE,45,7.2,8.7,78,0.02,,,0.04,wxRedirect v1.1,2013-09-16 03:54:00,
2013-09-15 22:55:00,71.2,64.0,30.09,NNE,22,5.1,8.7,78,0.02,,,0.04,wxRedirect v1.1,2013-09-16 03:55:00,
2013-09-15 22:56:00,71.2,64.0,30.08,NE,45,10.3,10.3,78,0.02,,,0.04,wxRedirect v1.1,2013-09-16 03:56:00,
2013-09-15 22:57:00,71.4,63.8,30.07,East,90,5.1,10.1,77,0.02,,,0.04,wxRedirect v1.1,2013-09-16 03:57:00,
2013-09-15 22:58:00,71.1,63.8,30.09,NNE,22,3.1,10.3,78,0.02,,,0.04,wxRedirect v1.1,2013-09-16 03:58:00,
2013-09-15 22:59:00,71.1,63.8,30.09,ENE,67,0.0,10.3,78,0.02,,,0.04,wxRedirect v1.1,2013-09-16 03:59:00,
2013-09-15 23:00:00,71.1,63.8,30.09,NE,45,2.7,10.3,78,0.02,,,0.04,wxRedirect v1.1,2013-09-16 04:00:00,
2013-09-15 23:01:00,71.2,64.0,30.09,NE,45,3.6,10.3,78,0.02,,,0.04,wxRedirect v1.1,2013-09-16 04:01:00,
2013-09-15 23:02:00,71.2,64.0,30.09,NNE,22,0.0,10.3,78,0.02,,,0.04,wxRedirect v1.1,2013-09-16 04:02:00,
2013-09-15 23:03:00,71.1,63.8,30.09,NE,45,3.6,10.3,78,0.02,,,0.04,wxRedirect v1.1,2013-09-16 04:03:00,
2013-09-15 23:04:00,71.2,64.0,30.10,NE,45,4.0,10.3,78,0.02,,,0.04,wxRedirect v1.1,2013-09-16 04:04:00,
2013-09-15 23:05:00,71.1,63.8,30.10,NE,45,0.0,10.3,78,0.02,,,0.04,wxRedirect v1.1,2013-09-16 04:05:00,
2013-09-15 23:06:00,71.1,63.8,30.10,NNE,22,10.5,10.5,78,0.02,,,0.04,wxRedirect v1.1,2013-09-16 04:06:00,
2013-09-15 23:07:00,71.1,63.8,30.10,North,0,4.9,10.5,78,0.02,,,0.04,wxRedirect v1.1,2013-09-16 04:07:00,
2013-09-15 23:08:00,71.1,63.8,30.09,NNE,22,6.7,10.5,78,0.02,,,0.04,wxRedirect v1.1,2013-09-16 04:08:00,
2013-09-15 23:09:00,71.1,63.8,30.09,NE,45,5.4,10.5,78,0.02,,,0.04,wxRedirect v1.1,2013-09-16 04:09:00,
2013-09-15 23:10:00,70.9,63.6,30.09,NE,45,6.5,10.5,78,0.02,,,0.04,wxRedirect v1.1,2013-09-16 04:10:00,
2013-09-15 23:11:00,71.1,63.8,30.09,NNE,22,2.2,10.5,78,0.02,,,0.04,wxRedirect v1.1,2013-09-16 04:11:00,
2013-09-15 23:12:00,71.1,63.8,30.10,NNE,22,7.6,10.5,78,0.02,,,0.04,wxRedirect v1.1,2013-09-16 04:12:00,
2013-09-15 23:13:00,71.1,63.8,30.10,North,0,3.8,10.5,78,0.02,,,0.04,wxRedirect v1.1,2013-09-16 04:13:00,
2013-09-15 23:14:00,70.9,63.6,30.10,North,0,4.9,10.5,78,0.02,,,0.04,wxRedirect v1.1,2013-09-16 04:14:00,
2013-09-15 23:15:00,70.9,63.6,30.10,North,0,8.1,10.5,78,0.02,,,0.04,wxRedirect v1.1,2013-09-16 04:15:00,
2013-09-15 23:16:00,70.9,63.6,30.10,North,0,14.5,14.5,78,0.02,,,0.04,wxRedirect v1.1,2013-09-16 04:16:00,
2013-09-15 23:17:00,70.9,63.6,30.10,North,0,2.0,14.5,78,0.02,,,0.04,wxRedirect v1.1,2013-09-16 04:17:00,
2013-09-15 23:18:00,70.9,63.6,30.10,North,0,4.5,14.5,78,0.02,,,0.04,wxRedirect v1.1,2013-09-16 04:18:00,
2013-09-15 23:19:00,70.9,63.6,30.10,North,0,8.7,14.5,78,0.02,,,0.04,wxRedirect v1.1,2013-09-16 04:19:00,
2013-09-15 23:20:00,70.9,63.6,30.10,NNE,22,7.6,14.5,78,0.02,,,0.04,wxRedirect v1.1,2013-09-16 04:20:00,
2013-09-15 23:21:00,70.9,63.6,30.10,North,0,8.9,14.5,78,0.02,,,0.04,wxRedirect v1.1,2013-09-16 04:21:00,
2013-09-15 23:22:00,70.9,63.6,30.11,NNE,22,5.6,14.5,78,0.02,,,0.04,wxRedirect v1.1,2013-09-16 04:22:00,
2013-09-15 23:23:00,70.9,63.6,30.11,NNE,22,4.9,14.5,78,0.02,,,0.04,wxRedirect v1.1,2013-09-16 04:23:00,
2013-09-15 23:24:00,70.9,63.6,30.11,North,0,4.7,14.5,78,0.02,,,0.04,wxRedirect v1.1,2013-09-16 04:24:00,
2013-09-15 23:25:00,70.9,63.6,30.11,NNE,22,2.9,14.5,78,0.02,,,0.04,wxRedirect v1.1,2013-09-16 04:25:00,
2013-09-15 23:26:00,70.9,63.6,30.11,NNE,22,9.2,13.6,78,0.02,,,0.04,wxRedirect v1.1,2013-09-16 04:26:00,
2013-09-15 23:27:00,70.9,63.6,30.11,NNE,22,4.3,13.6,78,0.02,,,0.04,wxRedirect v1.1,2013-09-16 04:27:00,
2013-09-15 23:28:00,70.7,63.6,30.11,North,0,0.7,12.8,78,0.02,,,0.04,wxRedirect v1.1,2013-09-16 04:28:00,
2013-09-15 23:29:00,70.7,63.5,30.11,North,0,6.5,10.5,78,0.02,,,0.04,wxRedirect v1.1,2013-09-16 04:29:00,
2013-09-15 23:30:00,70.7,63.5,30.11,North,0,11.6,11.6,78,0.02,,,0.04,wxRedirect v1.1,2013-09-16 04:30:00,
2013-09-15 23:31:00,70.7,63.5,30.10,North,0,10.5,11.6,78,0.00,,,0.04,wxRedirect v1.1,2013-09-16 04:31:00,
2013-09-15 23:32:00,70.7,63.5,30.10,North,0,17.9,17.9,78,0.00,,,0.04,wxRedirect v1.1,2013-09-16 04:32:00,
2013-09-15 23:33:00,70.7,63.5,30.10,NNE,22,9.8,17.9,78,0.00,,,0.04,wxRedirect v1.1,2013-09-16 04:33:00,
2013-09-15 23:34:00,70.7,63.5,30.10,NNE,22,10.3,17.9,78,0.00,,,0.04,wxRedirect v1.1,2013-09-16 04:34:00,
2013-09-15 23:35:00,70.5,63.3,30.10,NE,45,2.0,17.9,78,0.00,,,0.04,wxRedirect v1.1,2013-09-16 04:35:00,
2013-09-15 23:36:00,70.9,63.6,30.11,NNE,22,7.6,14.5,78,0.02,,,0.04,wxRedirect v1.1,2013-09-16 04:36:00,
2013-09-15 23:37:00,70.5,63.3,30.10,NNE,22,2.7,17.9,78,0.00,,,0.04,wxRedirect v1.1,2013-09-16 04:37:00,
2013-09-15 23:38:00,70.5,63.3,30.10,NE,45,3.1,17.9,78,0.00,,,0.04,wxRedirect v1.1,2013-09-16 04:38:00,
2013-09-15 23:40:00,70.5,63.3,30.10,NNE,22,5.1,17.9,78,0.00,,,0.04,wxRedirect v1.1,2013-09-16 04:40:00,
2013-09-15 23:41:00,70.3,63.1,30.10,NNE,22,12.8,17.9,78,0.00,,,0.04,wxRedirect v1.1,2013-09-16 04:41:00,
2013-09-15 23:42:00,70.7,63.5,30.11,NNE,22,2.2,10.5,78,0.02,,,0.04,wxRedirect v1.1,2013-09-16 04:42:00,
2013-09-15 23:44:00,70.3,63.1,30.10,NNE,22,3.4,13.2,78,0.00,,,0.04,wxRedirect v1.1,2013-09-16 04:44:00,
2013-09-15 23:47:00,70.2,62.9,30.10,NNE,22,15.0,15.0,78,0.00,,,0.04,wxRedirect v1.1,2013-09-16 04:47:00,
2013-09-15 23:48:00,70.5,63.3,30.10,North,0,7.2,17.9,78,0.00,,,0.04,wxRedirect v1.1,2013-09-16 04:48:00,
2013-09-15 23:49:00,70.2,62.9,30.10,NNE,22,9.2,15.0,78,0.00,,,0.04,wxRedirect v1.1,2013-09-16 04:49:00,
2013-09-15 23:50:00,70.0,62.7,30.10,NNE,22,7.8,15.0,78,0.00,,,0.04,wxRedirect v1.1,2013-09-16 04:50:00,
2013-09-15 23:51:00,70.0,62.4,30.10,NNE,22,7.6,15.0,77,0.00,,,0.04,wxRedirect v1.1,2013-09-16 04:51:00,
2013-09-15 23:54:00,70.3,63.1,30.10,NE,45,13.2,17.9,78,0.00,,,0.04,wxRedirect v1.1,2013-09-16 04:54:00,